| time (UTC) | temp C | wind direction | speed KPH | gust KPH | rain 1hr cm | rain 24hr cm | rain mn cm | humidity % | barometer mb |
| 20260906155458 | 35 | 18 | 4.8 | 8.0 | 0.00 | 0.03 | 0.00 | 47 | 1006.2 |
| 20260906154958 | 35 | 29 | 1.6 | 8.0 | 0.00 | 0.03 | 0.00 | 48 | 1006.2 |
| 20260906154458 | 35 | 352 | 3.2 | 6.4 | 0.00 | 0.03 | 0.00 | 47 | 1006.6 |
| 20260906153958 | 34 | 82 | 1.6 | 8.0 | 0.00 | 0.03 | 0.00 | 48 | 1006.4 |
| 20260906153458 | 35 | 17 | 4.8 | 8.0 | 0.00 | 0.03 | 0.00 | 51 | 1006.4 |
| 20260906152959 | 35 | 37 | 1.6 | 6.4 | 0.00 | 0.03 | 0.00 | 52 | 1006.4 |
| 20260906152458 | 35 | 332 | 3.2 | 6.4 | 0.00 | 0.03 | 0.00 | 50 | 1006.4 |
| 20260906151959 | 35 | 334 | 1.6 | 6.4 | 0.00 | 0.03 | 0.00 | 51 | 1006.4 |
| 20260906151459 | 33 | 57 | 4.8 | 6.4 | 0.00 | 0.03 | 0.00 | 53 | 1006.4 |
| 20260906150958 | 33 | 262 | 1.6 | 8.0 | 0.00 | 0.03 | 0.00 | 56 | 1006.4 |
| 20260906150458 | 33 | 77 | 4.8 | 9.7 | 0.00 | 0.03 | 0.00 | 59 | 1006.4 |
| 20260906145958 | 32 | 14 | 3.2 | 9.7 | 0.00 | 0.03 | 0.00 | 60 | 1006.4 |
| 20260906145458 | 32 | 52 | 3.2 | 8.0 | 0.00 | 0.03 | 0.00 | 60 | 1006.4 |
| 20260906144958 | 32 | 18 | 4.8 | 6.4 | 0.00 | 0.03 | 0.00 | 59 | 1006.3 |
| 20260906144458 | 32 | 13 | 3.2 | 6.4 | 0.00 | 0.03 | 0.00 | 58 | 1006.4 |
| 20260906143958 | 32 | 64 | 3.2 | 6.4 | 0.00 | 0.03 | 0.00 | 59 | 1006.5 |
| 20260906143458 | 31 | 8 | 3.2 | 6.4 | 0.00 | 0.03 | 0.00 | 57 | 1005.5 |
| 20260906142958 | 32 | 116 | 1.6 | 3.2 | 0.00 | 0.03 | 0.00 | 62 | 1006.3 |
| 20260906142459 | 31 | 216 | 1.6 | 3.2 | 0.00 | 0.03 | 0.00 | 63 | 1006.3 |
| 20260906141958 | 30 | 259 | 1.6 | 4.8 | 0.00 | 0.03 | 0.00 | 66 | 1006.4 |
| 20260906141458 | 30 | 329 | 1.6 | 4.8 | 0.00 | 0.03 | 0.00 | 67 | 1006.4 |
| 20260906140958 | 30 | 252 | 3.2 | 4.8 | 0.00 | 0.03 | 0.00 | 69 | 1006.5 |
| 20260906140458 | 30 | 1 | 1.6 | 4.8 | 0.00 | 0.03 | 0.00 | 69 | 1006.5 |
| 20260906135958 | 29 | 324 | 0.0 | 4.8 | 0.00 | 0.03 | 0.00 | 71 | 1006.5 |
| 20260906135458 | 29 | 261 | 1.6 | 4.8 | 0.00 | 0.03 | 0.00 | 72 | 1006.5 |
| 20260906134959 | 29 | 275 | 4.8 | 8.0 | 0.00 | 0.03 | 0.00 | 75 | 1006.5 |
| 20260906134458 | 27 | 253 | 4.8 | 8.0 | 0.00 | 0.03 | 0.00 | 74 | 1006.6 |
| 20260906133958 | 28 | 209 | 3.2 | 6.4 | 0.00 | 0.03 | 0.00 | 78 | 1006.5 |
| 20260906133458 | 28 | 313 | 3.2 | 6.4 | 0.00 | 0.03 | 0.00 | 76 | 1006.5 |
| 20260906132958 | 28 | 326 | 4.8 | 8.0 | 0.00 | 0.03 | 0.00 | 77 | 1006.1 |
| 20260906132459 | 27 | 311 | 4.8 | 8.0 | 0.00 | 0.03 | 0.00 | 78 | 1006.5 |
| 20260906131959 | 27 | 271 | 3.2 | 4.8 | 0.00 | 0.03 | 0.00 | 82 | 1006.4 |
| 20260906131458 | 27 | 226 | 4.8 | 4.8 | 0.00 | 0.03 | 0.00 | 79 | 1006.4 |
| 20260906130958 | 26 | 295 | 1.6 | 4.8 | 0.00 | 0.03 | 0.00 | 82 | 1006.4 |
| 20260906130458 | 27 | 188 | 3.2 | 4.8 | 0.00 | 0.03 | 0.00 | 84 | 1006.4 |
| 20260906125958 | 27 | 192 | 4.8 | 4.8 | 0.00 | 0.03 | 0.00 | 85 | 1006.4 |
| 20260906125458 | 26 | 195 | 3.2 | 3.2 | 0.00 | 0.03 | 0.00 | 83 | 1006.3 |
| 20260906124959 | 25 | 212 | 1.6 | 3.2 | 0.00 | 0.03 | 0.00 | 84 | 1006.3 |
| 20260906124458 | 26 | 225 | 1.6 | 3.2 | 0.00 | 0.03 | 0.00 | 86 | 1006.3 |
| 20260906123958 | 25 | 201 | 1.6 | 4.8 | 0.00 | 0.03 | 0.00 | 87 | 1006.2 |
| 20260906123458 | 25 | 214 | 3.2 | 4.8 | 0.00 | 0.03 | 0.00 | 87 | 1006.2 |
| 20260906122958 | 25 | 184 | 4.8 | 4.8 | 0.00 | 0.03 | 0.00 | 87 | 1006.2 |
| 20260906122458 | 25 | 180 | 1.6 | 3.2 | 0.00 | 0.03 | 0.00 | 87 | 1006.1 |
| 20260906121958 | 25 | 217 | 1.6 | 3.2 | 0.00 | 0.03 | 0.00 | 88 | 1005.9 |
| 20260906121458 | 25 | 230 | 1.6 | 3.2 | 0.00 | 0.03 | 0.00 | 88 | 1005.9 |
| 20260906120958 | 25 | 235 | 1.6 | 1.6 | 0.00 | 0.03 | 0.00 | 89 | 1005.8 |
| 20260906120458 | 25 | 46 | 0.0 | 1.6 | 0.00 | 0.03 | 0.00 | 90 | 1005.7 |
| 20260906115958 | 25 | 221 | 1.6 | 1.6 | 0.00 | 0.03 | 0.00 | 90 | 1005.8 |
| 20260906115458 | 24 | 201 | 1.6 | 1.6 | 0.00 | 0.03 | 0.00 | 90 | 1005.7 |
| 20260906114958 | 24 | 171 | 1.6 | 1.6 | 0.00 | 0.03 | 0.00 | 90 | 1005.6 |
| 20260906114458 | 24 | 256 | 0.0 | 1.6 | 0.00 | 0.03 | 0.00 | 90 | 1005.5 |
| 20260906113958 | 24 | 236 | 0.0 | 6.4 | 0.00 | 0.03 | 0.00 | 90 | 1005.5 |
| 20260906113458 | 23 | 287 | 1.6 | 8.0 | 0.00 | 0.03 | 0.00 | 89 | 1005.8 |
| 20260906112958 | 25 | 198 | 4.8 | 8.0 | 0.00 | 0.03 | 0.00 | 89 | 1005.5 |
| 20260906112459 | 25 | 220 | 4.8 | 4.8 | 0.00 | 0.03 | 0.00 | 89 | 1005.4 |
| 20260906111958 | 25 | 328 | 1.6 | 1.6 | 0.00 | 0.03 | 0.00 | 89 | 1005.3 |
| 20260906111459 | 25 | 322 | 0.0 | 3.2 | 0.00 | 0.03 | 0.00 | 89 | 1005.3 |
| 20260906111004 | 25 | 333 | 1.6 | 4.8 | 0.00 | 0.03 | 0.00 | 88 | 1005.3 |
| 20260906110458 | 25 | 348 | 3.2 | 4.8 | 0.00 | 0.03 | 0.00 | 89 | 1005.3 |
| 20260906105958 | 24 | 344 | 3.2 | 4.8 | 0.00 | 0.03 | 0.00 | 89 | 1005.1 |
| 20260906105458 | 24 | 357 | 1.6 | 4.8 | 0.00 | 0.03 | 0.00 | 88 | 1005.1 |
| 20260906104958 | 25 | 10 | 3.2 | 4.8 | 0.00 | 0.03 | 0.00 | 87 | 1005.0 |
| 20260906104458 | 25 | 333 | 3.2 | 4.8 | 0.00 | 0.03 | 0.00 | 87 | 1005.1 |
| 20260906103958 | 25 | 284 | 3.2 | 4.8 | 0.00 | 0.03 | 0.00 | 88 | 1005.1 |
| 20260906103458 | 25 | 270 | 4.8 | 4.8 | 0.00 | 0.03 | 0.00 | 88 | 1005.1 |
| 20260906102958 | 25 | 336 | 4.8 | 4.8 | 0.00 | 0.03 | 0.00 | 88 | 1005.1 |
| 20260906102458 | 25 | 349 | 3.2 | 3.2 | 0.00 | 0.03 | 0.00 | 88 | 1005.1 |
| 20260906101958 | 25 | 10 | 3.2 | 3.2 | 0.00 | 0.03 | 0.00 | 88 | 1005.1 |
| 20260906101459 | 25 | 13 | 1.6 | 1.6 | 0.00 | 0.03 | 0.00 | 87 | 1005.1 |
| 20260906100959 | 25 | 235 | 0.0 | 3.2 | 0.00 | 0.03 | 0.00 | 87 | 1005.1 |
| 20260906100458 | 25 | 186 | 1.6 | 3.2 | 0.00 | 0.03 | 0.00 | 87 | 1005.1 |
| 20260906095958 | 25 | 176 | 1.6 | 3.2 | 0.00 | 0.03 | 0.00 | 85 | 1005.1 |
| 20260906095459 | 25 | 152 | 3.2 | 4.8 | 0.00 | 0.03 | 0.00 | 85 | 1005.0 |
| 20260906094958 | 26 | 75 | 1.6 | 4.8 | 0.00 | 0.03 | 0.00 | 86 | 1004.9 |
| 20260906094458 | 26 | 54 | 4.8 | 4.8 | 0.00 | 0.03 | 0.00 | 86 | 1005.0 |
| 20260906093958 | 26 | 51 | 4.8 | 4.8 | 0.00 | 0.03 | 0.00 | 86 | 1005.1 |
| 20260906093458 | 25 | 108 | 0.0 | 4.8 | 0.00 | 0.03 | 0.00 | 83 | 1005.0 |
| 20260906092959 | 25 | 121 | 1.6 | 4.8 | 0.00 | 0.03 | 0.00 | 83 | 1005.0 |
| 20260906092458 | 26 | 105 | 3.2 | 3.2 | 0.00 | 0.03 | 0.00 | 86 | 1004.9 |
| 20260906091959 | 26 | 121 | 3.2 | 4.8 | 0.00 | 0.03 | 0.00 | 87 | 1005.0 |
| 20260906091459 | 26 | 124 | 1.6 | 4.8 | 0.00 | 0.03 | 0.00 | 87 | 1005.0 |
| 20260906090958 | 25 | 101 | 3.2 | 4.8 | 0.00 | 0.03 | 0.00 | 88 | 1004.8 |
| 20260906090459 | 25 | 93 | 3.2 | 4.8 | 0.00 | 0.03 | 0.00 | 87 | 1004.8 |
| 20260906085958 | 25 | 146 | 3.2 | 8.0 | 0.00 | 0.03 | 0.00 | 87 | 1004.7 |
| 20260906085458 | 25 | 192 | 4.8 | 9.7 | 0.00 | 0.03 | 0.00 | 86 | 1004.6 |
| 20260906084958 | 26 | 191 | 6.4 | 9.7 | 0.00 | 0.03 | 0.00 | 83 | 1004.5 |
| 20260906084458 | 26 | 134 | 1.6 | 3.2 | 0.00 | 0.03 | 0.00 | 82 | 1004.4 |
| 20260906083958 | 26 | 77 | 1.6 | 1.6 | 0.00 | 0.03 | 0.00 | 82 | 1004.4 |
| 20260906083459 | 26 | 86 | 1.6 | 1.6 | 0.00 | 0.03 | 0.00 | 81 | 1004.4 |
| 20260906082958 | 26 | 145 | 1.6 | 3.2 | 0.00 | 0.03 | 0.00 | 82 | 1004.5 |
| 20260906082458 | 26 | 169 | 1.6 | 3.2 | 0.00 | 0.03 | 0.00 | 81 | 1004.4 |
| 20260906081958 | 26 | 114 | 1.6 | 3.2 | 0.00 | 0.03 | 0.00 | 80 | 1004.4 |
| 20260906081458 | 27 | 354 | 0.0 | 3.2 | 0.00 | 0.03 | 0.00 | 80 | 1004.3 |
| 20260906080958 | 26 | 338 | 1.6 | 3.2 | 0.00 | 0.03 | 0.00 | 82 | 1004.1 |
| 20260906080458 | 26 | 314 | 1.6 | 3.2 | 0.00 | 0.03 | 0.00 | 82 | 1004.1 |
| 20260906075959 | 26 | 277 | 1.6 | 3.2 | 0.00 | 0.03 | 0.00 | 82 | 1004.2 |
| 20260906075458 | 27 | 48 | 1.6 | 3.2 | 0.00 | 0.03 | 0.00 | 82 | 1004.2 |
| 20260906074958 | 27 | 346 | 1.6 | 6.4 | 0.00 | 0.03 | 0.00 | 80 | 1004.2 |
| 20260906074458 | 27 | 305 | 3.2 | 6.4 | 0.00 | 0.03 | 0.00 | 80 | 1004.2 |
| 20260906073958 | 26 | 322 | 6.4 | 6.4 | 0.00 | 0.03 | 0.00 | 81 | 1004.2 |
| 20260906073459 | 26 | 345 | 4.8 | 6.4 | 0.00 | 0.03 | 0.00 | 84 | 1004.3 |
| 20260906072958 | 26 | 11 | 4.8 | 6.4 | 0.00 | 0.03 | 0.00 | 85 | 1004.3 |
| 20260906072458 | 26 | 349 | 6.4 | 6.4 | 0.00 | 0.03 | 0.00 | 85 | 1004.3 |
| 20260906071958 | 25 | 356 | 4.8 | 6.4 | 0.00 | 0.03 | 0.00 | 85 | 1004.4 |
| 20260906071458 | 25 | 25 | 4.8 | 4.8 | 0.00 | 0.03 | 0.00 | 85 | 1004.5 |
| 20260906070958 | 26 | 333 | 1.6 | 3.2 | 0.00 | 0.03 | 0.00 | 83 | 1004.5 |
| 20260906070458 | 26 | 299 | 1.6 | 6.4 | 0.00 | 0.03 | 0.00 | 84 | 1004.5 |
| 20260906065959 | 26 | 187 | 1.6 | 6.4 | 0.00 | 0.03 | 0.00 | 83 | 1004.5 |
| 20260906065458 | 27 | 229 | 6.4 | 6.4 | 0.00 | 0.03 | 0.00 | 83 | 1004.6 |
| 20260906064958 | 26 | 326 | 3.2 | 3.2 | 0.00 | 0.03 | 0.00 | 82 | 1004.6 |
| 20260906064458 | 26 | 348 | 3.2 | 3.2 | 0.00 | 0.03 | 0.00 | 80 | 1004.6 |
| 20260906063959 | 27 | 13 | 1.6 | 3.2 | 0.00 | 0.03 | 0.00 | 81 | 1004.6 |
| 20260906063458 | 26 | 355 | 3.2 | 3.2 | 0.00 | 0.03 | 0.00 | 81 | 1004.6 |
| 20260906062958 | 27 | 25 | 3.2 | 3.2 | 0.00 | 0.03 | 0.00 | 80 | 1004.7 |
| 20260906062458 | 26 | 350 | 1.6 | 3.2 | 0.00 | 0.03 | 0.00 | 80 | 1004.8 |
| 20260906061959 | 27 | 321 | 0.0 | 3.2 | 0.00 | 0.03 | 0.00 | 81 | 1004.8 |
| 20260906061458 | 26 | 178 | 1.6 | 3.2 | 0.00 | 0.03 | 0.00 | 80 | 1004.9 |
| 20260906060959 | 27 | 322 | 1.6 | 3.2 | 0.00 | 0.03 | 0.00 | 81 | 1004.9 |
| 20260906060459 | 27 | 210 | 1.6 | 3.2 | 0.00 | 0.03 | 0.00 | 81 | 1004.9 |
| 20260906055958 | 27 | 115 | 3.2 | 4.8 | 0.00 | 0.03 | 0.03 | 81 | 1004.9 |
| 20260906055458 | 27 | 319 | 0.0 | 9.7 | 0.00 | 0.03 | 0.03 | 82 | 1005.0 |
| 20260906054959 | 26 | 272 | 3.2 | 16.1 | 0.00 | 0.03 | 0.03 | 82 | 1005.0 |
| 20260906054458 | 27 | 227 | 6.4 | 19.3 | 0.00 | 0.03 | 0.03 | 82 | 1005.0 |
| 20260906053958 | 26 | 189 | 11.3 | 19.3 | 0.00 | 0.03 | 0.03 | 84 | 1005.0 |
| 20260906053458 | 27 | 24 | 1.6 | 4.8 | 0.00 | 0.03 | 0.03 | 86 | 1004.7 |
| 20260906052958 | 27 | 18 | 3.2 | 4.8 | 0.00 | 0.03 | 0.03 | 85 | 1004.7 |
| 20260906052458 | 27 | 360 | 3.2 | 4.8 | 0.00 | 0.03 | 0.03 | 84 | 1004.7 |
| 20260906051958 | 26 | 6 | 4.8 | 4.8 | 0.00 | 0.03 | 0.03 | 83 | 1004.7 |
| 20260906051458 | 27 | 14 | 3.2 | 3.2 | 0.00 | 0.03 | 0.03 | 84 | 1004.7 |
| 20260906050958 | 26 | 18 | 1.6 | 1.6 | 0.00 | 0.03 | 0.03 | 84 | 1004.6 |
| 20260906050459 | 27 | 46 | 1.6 | 3.2 | 0.00 | 0.03 | 0.03 | 84 | 1004.6 |
| 20260906045958 | 27 | 130 | 1.6 | 3.2 | 0.00 | 0.03 | 0.03 | 84 | 1004.6 |
| 20260906045458 | 27 | 94 | 1.6 | 3.2 | 0.00 | 0.03 | 0.03 | 83 | 1004.6 |
| 20260906044958 | 26 | 117 | 1.6 | 1.6 | 0.00 | 0.03 | 0.03 | 82 | 1004.6 |
| 20260906044458 | 27 | 196 | 0.0 | 1.6 | 0.00 | 0.03 | 0.03 | 82 | 1004.6 |
| 20260906043958 | 27 | 101 | 0.0 | 1.6 | 0.00 | 0.03 | 0.03 | 82 | 1004.6 |
| 20260906043458 | 27 | 168 | 1.6 | 4.8 | 0.00 | 0.03 | 0.03 | 82 | 1004.5 |
| 20260906042958 | 27 | 210 | 1.6 | 4.8 | 0.00 | 0.03 | 0.03 | 81 | 1004.4 |
| 20260906042458 | 27 | 190 | 4.8 | 4.8 | 0.00 | 0.03 | 0.03 | 82 | 1004.3 |
| 20260906041958 | 27 | 188 | 3.2 | 4.8 | 0.00 | 0.03 | 0.03 | 82 | 1004.2 |
| 20260906041459 | 27 | 191 | 3.2 | 4.8 | 0.00 | 0.03 | 0.03 | 83 | 1004.2 |
| 20260906040958 | 27 | 196 | 3.2 | 4.8 | 0.00 | 0.03 | 0.03 | 82 | 1004.0 |
| 20260906040458 | 27 | 218 | 3.2 | 3.2 | 0.00 | 0.03 | 0.03 | 81 | 1004.3 |
| 20260906035958 | 27 | 247 | 1.6 | 3.2 | 0.00 | 0.03 | 0.03 | 78 | 1004.2 |
| 20260906035458 | 28 | 322 | 1.6 | 3.2 | 0.00 | 0.03 | 0.03 | 78 | 1004.2 |
| 20260906034958 | 27 | 336 | 3.2 | 3.2 | 0.00 | 0.03 | 0.03 | 74 | 1004.2 |
| 20260906034459 | 27 | 338 | 3.2 | 3.2 | 0.00 | 0.03 | 0.03 | 75 | 1004.3 |
| 20260906033958 | 27 | 312 | 1.6 | 1.6 | 0.00 | 0.03 | 0.03 | 77 | 1004.3 |
| 20260906033458 | 27 | 338 | 1.6 | 3.2 | 0.00 | 0.03 | 0.03 | 78 | 1004.5 |
| 20260906032958 | 27 | 27 | 1.6 | 3.2 | 0.00 | 0.03 | 0.03 | 77 | 1004.5 |
| 20260906032458 | 28 | 20 | 3.2 | 3.2 | 0.00 | 0.03 | 0.03 | 79 | 1004.5 |
| 20260906031958 | 27 | 355 | 1.6 | 4.8 | 0.00 | 0.03 | 0.03 | 78 | 1004.6 |
| 20260906031459 | 28 | 8 | 3.2 | 4.8 | 0.00 | 0.03 | 0.03 | 77 | 1004.7 |
| 20260906030958 | 28 | 360 | 3.2 | 3.2 | 0.00 | 0.03 | 0.03 | 76 | 1004.7 |
| 20260906030458 | 28 | 351 | 1.6 | 1.6 | 0.00 | 0.03 | 0.03 | 76 | 1004.7 |
| 20260906025959 | 28 | 65 | 0.0 | 1.6 | 0.00 | 0.03 | 0.03 | 76 | 1004.7 |
| 20260906025459 | 28 | 88 | 1.6 | 3.2 | 0.00 | 0.03 | 0.03 | 76 | 1004.7 |
| 20260906024958 | 28 | 17 | 1.6 | 3.2 | 0.00 | 0.03 | 0.03 | 77 | 1004.8 |
| 20260906024458 | 28 | 27 | 1.6 | 1.6 | 0.00 | 0.03 | 0.03 | 76 | 1004.7 |
| 20260906023958 | 29 | 29 | 1.6 | 1.6 | 0.00 | 0.03 | 0.03 | 76 | 1004.7 |
| 20260906023458 | 28 | 38 | 1.6 | 1.6 | 0.00 | 0.03 | 0.03 | 76 | 1004.7 |
| 20260906022959 | 28 | 27 | 1.6 | 1.6 | 0.00 | 0.03 | 0.03 | 77 | 1004.7 |
| 20260906022458 | 28 | 149 | 0.0 | 1.6 | 0.00 | 0.03 | 0.03 | 77 | 1004.7 |
| 20260906021958 | 28 | 29 | 0.0 | 1.6 | 0.00 | 0.03 | 0.03 | 77 | 1004.7 |
| 20260906021458 | 28 | 13 | 1.6 | 1.6 | 0.00 | 0.03 | 0.03 | 76 | 1004.6 |
| 20260906020958 | 28 | 347 | 1.6 | 1.6 | 0.00 | 0.03 | 0.03 | 77 | 1004.5 |
| 20260906020458 | 28 | 282 | 1.6 | 1.6 | 0.00 | 0.03 | 0.03 | 76 | 1004.5 |
| 20260906015958 | 28 | 267 | 1.6 | 1.6 | 0.00 | 0.03 | 0.03 | 76 | 1004.4 |
| 20260906015458 | 28 | 287 | 1.6 | 1.6 | 0.00 | 0.03 | 0.03 | 75 | 1004.3 |
| 20260906014958 | 28 | 327 | 1.6 | 3.2 | 0.00 | 0.03 | 0.03 | 75 | 1004.2 |
| 20260906014458 | 29 | 351 | 1.6 | 4.8 | 0.00 | 0.03 | 0.03 | 76 | 1004.2 |
| 20260906013959 | 29 | 20 | 3.2 | 4.8 | 0.00 | 0.03 | 0.03 | 76 | 1004.2 |
| 20260906013458 | 29 | 359 | 3.2 | 4.8 | 0.00 | 0.03 | 0.03 | 74 | 1004.0 |
| 20260906012958 | 28 | 14 | 3.2 | 3.2 | 0.00 | 0.03 | 0.03 | 74 | 1004.0 |
| 20260906012459 | 29 | 353 | 3.2 | 3.2 | 0.00 | 0.03 | 0.03 | 75 | 1004.1 |
| 20260906011958 | 30 | 334 | 1.6 | 3.2 | 0.00 | 0.03 | 0.03 | 72 | 1004.0 |
| 20260906011458 | 30 | 271 | 1.6 | 3.2 | 0.00 | 0.03 | 0.03 | 73 | 1004.0 |
| 20260906010958 | 30 | 247 | 3.2 | 3.2 | 0.00 | 0.03 | 0.03 | 71 | 1003.8 |
| 20260906010458 | 30 | 224 | 3.2 | 3.2 | 0.00 | 0.03 | 0.03 | 71 | 1003.7 |
| 20260906005959 | 30 | 221 | 3.2 | 3.2 | 0.00 | 0.03 | 0.03 | 71 | 1003.6 |
| 20260906005459 | 31 | 217 | 3.2 | 3.2 | 0.00 | 0.03 | 0.03 | 71 | 1003.5 |
| 20260906004958 | 30 | 218 | 1.6 | 3.2 | 0.00 | 0.03 | 0.03 | 69 | 1003.5 |
| 20260906004458 | 31 | 265 | 1.6 | 1.6 | 0.00 | 0.03 | 0.03 | 67 | 1003.5 |
| 20260906003959 | 31 | 232 | 1.6 | 1.6 | 0.00 | 0.03 | 0.03 | 67 | 1003.5 |
| 20260906003458 | 31 | 215 | 1.6 | 1.6 | 0.00 | 0.03 | 0.03 | 66 | 1003.5 |
| 20260906002958 | 32 | 214 | 0.0 | 4.8 | 0.00 | 0.03 | 0.03 | 67 | 1003.5 |
| 20260906002458 | 32 | 2 | 1.6 | 4.8 | 0.00 | 0.03 | 0.03 | 65 | 1003.5 |
| 20260906001958 | 33 | 27 | 4.8 | 4.8 | 0.00 | 0.03 | 0.03 | 64 | 1003.5 |
| 20260906001458 | 32 | 300 | 0.0 | 1.6 | 0.00 | 0.03 | 0.03 | 56 | 1003.5 |
| 20260906000958 | 32 | 302 | 0.0 | 3.2 | 0.00 | 0.03 | 0.03 | 57 | 1003.5 |
| 20260906000458 | 33 | 294 | 1.6 | 4.8 | 0.00 | 0.03 | 0.03 | 59 | 1003.6 |
| 20260905235959 | 33 | 209 | 1.6 | 6.4 | 0.00 | 0.03 | 0.03 | 54 | 1003.6 |
| 20260905235458 | 34 | 189 | 4.8 | 6.4 | 0.00 | 0.03 | 0.03 | 54 | 1003.5 |
| 20260905234958 | 34 | 191 | 6.4 | 6.4 | 0.00 | 0.03 | 0.03 | 53 | 1003.3 |
| 20260905234458 | 33 | 179 | 4.8 | 6.4 | 0.00 | 0.03 | 0.03 | 54 | 1003.7 |
| 20260905233958 | 32 | 191 | 4.8 | 4.8 | 0.00 | 0.03 | 0.03 | 54 | 1003.8 |
| 20260905233458 | 34 | 194 | 4.8 | 4.8 | 0.00 | 0.03 | 0.03 | 56 | 1003.8 |
| 20260905232958 | 34 | 203 | 3.2 | 6.4 | 0.00 | 0.03 | 0.03 | 56 | 1003.7 |
| 20260905232458 | 33 | 167 | 3.2 | 8.0 | 0.00 | 0.03 | 0.03 | 58 | 1003.6 |
| 20260905231958 | 34 | 185 | 6.4 | 8.0 | 0.00 | 0.03 | 0.03 | 54 | 1003.6 |
| 20260905231458 | 34 | 180 | 6.4 | 8.0 | 0.00 | 0.03 | 0.03 | 53 | 1003.6 |
| 20260905230959 | 34 | 175 | 4.8 | 8.0 | 0.00 | 0.03 | 0.03 | 55 | 1003.6 |
| 20260905230459 | 33 | 197 | 6.4 | 8.0 | 0.00 | 0.03 | 0.03 | 52 | 1003.5 |
| 20260905225958 | 33 | 188 | 6.4 | 8.0 | 0.00 | 0.03 | 0.03 | 51 | 1003.1 |
| 20260905225458 | 33 | 187 | 6.4 | 9.7 | 0.00 | 0.03 | 0.03 | 50 | 1003.4 |
| 20260905224959 | 33 | 182 | 4.8 | 9.7 | 0.03 | 0.03 | 0.03 | 52 | 1003.4 |
| 20260905224459 | 34 | 198 | 8.0 | 9.7 | 0.03 | 0.03 | 0.03 | 53 | 1003.4 |
| 20260905223958 | 33 | 189 | 4.8 | 9.7 | 0.03 | 0.03 | 0.03 | 55 | 1003.5 |
| 20260905223458 | 33 | 175 | 6.4 | 11.3 | 0.03 | 0.03 | 0.03 | 54 | 1003.4 |
| 20260905222958 | 32 | 190 | 8.0 | 11.3 | 0.03 | 0.03 | 0.03 | 54 | 1003.5 |
| 20260905222458 | 32 | 171 | 4.8 | 11.3 | 0.03 | 0.03 | 0.03 | 56 | 1003.5 |
| 20260905221959 | 32 | 164 | 6.4 | 12.9 | 0.03 | 0.03 | 0.03 | 59 | 1003.7 |
| 20260905221458 | 32 | 169 | 8.0 | 14.5 | 0.03 | 0.03 | 0.03 | 59 | 1003.7 |
| 20260905220958 | 31 | 192 | 8.0 | 14.5 | 0.03 | 0.03 | 0.03 | 64 | 1003.9 |
| 20260905220458 | 30 | 174 | 8.0 | 17.7 | 0.03 | 0.03 | 0.03 | 67 | 1004.0 |
| 20260905215958 | 30 | 150 | 6.4 | 20.9 | 0.03 | 0.03 | 0.03 | 71 | 1004.1 |
| 20260905215458 | 31 | 181 | 16.1 | 20.9 | 0.03 | 0.03 | 0.03 | 68 | 1004.2 |
| 20260905214958 | 32 | 195 | 12.9 | 27.4 | 0.00 | 0.00 | 0.00 | 58 | 1004.3 |
| 20260905214458 | 32 | 155 | 16.1 | 27.4 | 0.00 | 0.00 | 0.00 | 51 | 1004.4 |
| 20260905213958 | 33 | 144 | 17.7 | 27.4 | 0.00 | 0.00 | 0.00 | 49 | 1004.1 |
| 20260905213458 | 34 | 169 | 14.5 | 25.7 | 0.00 | 0.00 | 0.00 | 49 | 1004.1 |
| 20260905212958 | 33 | 167 | 12.9 | 37.0 | 0.00 | 0.00 | 0.00 | 49 | 1004.0 |
| 20260905212458 | 34 | 154 | 19.3 | 37.0 | 0.00 | 0.00 | 0.00 | 49 | 1004.0 |
| 20260905211959 | 36 | 103 | 22.5 | 27.4 | 0.00 | 0.00 | 0.00 | 44 | 1003.8 |
| 20260905211458 | 36 | 58 | 4.8 | 6.4 | 0.00 | 0.00 | 0.00 | 51 | 1003.0 |
| 20260905210958 | 35 | 22 | 3.2 | 11.3 | 0.00 | 0.00 | 0.00 | 49 | 1003.6 |
| 20260905210458 | 35 | 28 | 4.8 | 12.9 | 0.00 | 0.00 | 0.00 | 47 | 1003.5 |
| 20260905205958 | 36 | 344 | 9.7 | 14.5 | 0.00 | 0.00 | 0.00 | 43 | 1003.4 |
| 20260905205458 | 36 | 345 | 8.0 | 14.5 | 0.00 | 0.00 | 0.00 | 42 | 1003.5 |
| 20260905204958 | 36 | 13 | 11.3 | 14.5 | 0.00 | 0.00 | 0.00 | 41 | 1003.6 |
| 20260905204459 | 38 | 27 | 4.8 | 8.0 | 0.00 | 0.00 | 0.00 | 37 | 1003.8 |
| 20260905203958 | 38 | 312 | 3.2 | 11.3 | 0.00 | 0.00 | 0.00 | 37 | 1003.6 |
| 20260905203459 | 38 | 48 | 4.8 | 17.7 | 0.00 | 0.00 | 0.00 | 37 | 1003.8 |
| 20260905202958 | 37 | 54 | 11.3 | 17.7 | 0.00 | 0.00 | 0.00 | 41 | 1004.1 |
| 20260905202458 | 37 | 15 | 11.3 | 17.7 | 0.00 | 0.00 | 0.00 | 39 | 1004.0 |
| 20260905201958 | 37 | 221 | 3.2 | 11.3 | 0.00 | 0.00 | 0.00 | 38 | 1004.1 |
| 20260905201458 | 37 | 331 | 3.2 | 11.3 | 0.00 | 0.00 | 0.00 | 37 | 1004.2 |
| 20260905200958 | 37 | 345 | 8.0 | 11.3 | 0.00 | 0.00 | 0.00 | 41 | 1004.3 |
| 20260905200459 | 37 | 347 | 4.8 | 11.3 | 0.00 | 0.00 | 0.00 | 39 | 1004.5 |
| 20260905195958 | 36 | 15 | 6.4 | 19.3 | 0.00 | 0.00 | 0.00 | 43 | 1004.6 |
| 20260905195458 | 36 | 30 | 6.4 | 19.3 | 0.00 | 0.00 | 0.00 | 43 | 1004.7 |
| 20260905194958 | 36 | 2 | 11.3 | 19.3 | 0.00 | 0.00 | 0.00 | 43 | 1004.7 |
| 20260905194458 | 37 | 322 | 9.7 | 14.5 | 0.00 | 0.00 | 0.00 | 40 | 1004.8 |
| 20260905193958 | 38 | 349 | 4.8 | 9.7 | 0.00 | 0.00 | 0.00 | 39 | 1004.9 |
| 20260905193458 | 38 | 348 | 3.2 | 9.7 | 0.00 | 0.00 | 0.00 | 38 | 1004.8 |
| 20260905192959 | 37 | 329 | 8.0 | 14.5 | 0.00 | 0.00 | 0.00 | 39 | 1005.0 |
| 20260905192458 | 37 | 348 | 4.8 | 14.5 | 0.00 | 0.00 | 0.00 | 39 | 1005.0 |
| 20260905191958 | 37 | 12 | 6.4 | 12.9 | 0.00 | 0.00 | 0.00 | 37 | 1005.1 |
| 20260905191459 | 37 | 149 | 3.2 | 14.5 | 0.00 | 0.00 | 0.00 | 40 | 1005.2 |
| 20260905190959 | 37 | 265 | 6.4 | 16.1 | 0.00 | 0.00 | 0.00 | 38 | 1005.2 |
| 20260905190458 | 37 | 351 | 9.7 | 16.1 | 0.00 | 0.00 | 0.00 | 40 | 1005.2 |
| 20260905185959 | 37 | 36 | 6.4 | 19.3 | 0.00 | 0.00 | 0.00 | 39 | 1005.3 |
| 20260905185458 | 37 | 26 | 8.0 | 19.3 | 0.00 | 0.00 | 0.00 | 44 | 1005.4 |
| 20260905184958 | 37 | 353 | 4.8 | 14.5 | 0.00 | 0.00 | 0.00 | 42 | 1005.5 |
| 20260905184458 | 35 | 14 | 9.7 | 16.1 | 0.00 | 0.00 | 0.00 | 40 | 1005.7 |
| 20260905183958 | 36 | 352 | 9.7 | 19.3 | 0.00 | 0.00 | 0.00 | 42 | 1005.6 |
| 20260905183458 | 36 | 38 | 12.9 | 19.3 | 0.00 | 0.00 | 0.00 | 42 | 1005.7 |
| 20260905182958 | 37 | 28 | 11.3 | 12.9 | 0.00 | 0.00 | 0.00 | 45 | 1005.8 |
| 20260905182459 | 36 | 22 | 9.7 | 12.9 | 0.00 | 0.00 | 0.00 | 41 | 1005.9 |
| 20260905181958 | 37 | 306 | 6.4 | 11.3 | 0.00 | 0.00 | 0.00 | 47 | 1005.9 |
| 20260905181459 | 36 | 10 | 6.4 | 9.7 | 0.00 | 0.00 | 0.00 | 41 | 1005.9 |
| 20260905180958 | 36 | 313 | 8.0 | 12.9 | 0.00 | 0.00 | 0.00 | 40 | 1005.6 |
| 20260905180458 | 36 | 264 | 1.6 | 12.9 | 0.00 | 0.00 | 0.00 | 41 | 1006.2 |
| 20260905175958 | 36 | 253 | 4.8 | 8.0 | 0.00 | 0.00 | 0.00 | 40 | 1005.9 |
| 20260905175458 | 35 | 325 | 1.6 | 8.0 | 0.00 | 0.00 | 0.00 | 43 | 1006.3 |
| 20260905174958 | 35 | 14 | 4.8 | 8.0 | 0.00 | 0.00 | 0.00 | 42 | 1006.2 |
| 20260905174458 | 36 | 357 | 6.4 | 6.4 | 0.00 | 0.00 | 0.00 | 48 | 1006.3 |
| 20260905173958 | 36 | 11 | 1.6 | 8.0 | 0.00 | 0.00 | 0.00 | 40 | 1006.3 |
| 20260905173458 | 36 | 18 | 4.8 | 9.7 | 0.00 | 0.00 | 0.00 | 43 | 1006.4 |
| 20260905172958 | 35 | 4 | 3.2 | 11.3 | 0.00 | 0.00 | 0.00 | 45 | 1006.5 |
| 20260905172458 | 35 | 14 | 8.0 | 11.3 | 0.00 | 0.00 | 0.00 | 46 | 1006.6 |
| 20260905171958 | 36 | 4 | 1.6 | 11.3 | 0.00 | 0.00 | 0.00 | 44 | 1006.6 |
| 20260905171459 | 35 | 6 | 1.6 | 11.3 | 0.00 | 0.00 | 0.00 | 47 | 1006.7 |
| 20260905170958 | 35 | 23 | 6.4 | 9.7 | 0.00 | 0.00 | 0.00 | 48 | 1006.8 |
| 20260905170459 | 35 | 331 | 3.2 | 11.3 | 0.00 | 0.00 | 0.00 | 46 | 1006.8 |
| 20260905165958 | 35 | 32 | 4.8 | 11.3 | 0.00 | 0.00 | 0.00 | 46 | 1006.9 |
| 20260905165458 | 36 | 224 | 1.6 | 12.9 | 0.00 | 0.00 | 0.00 | 44 | 1006.9 |
| 20260905164958 | 35 | 45 | 9.7 | 12.9 | 0.00 | 0.00 | 0.00 | 46 | 1006.9 |
| 20260905164458 | 35 | 336 | 8.0 | 14.5 | 0.00 | 0.00 | 0.00 | 43 | 1006.9 |
| 20260905163958 | 35 | 45 | 4.8 | 14.5 | 0.00 | 0.00 | 0.00 | 44 | 1007.0 |
| 20260905163458 | 35 | 56 | 4.8 | 9.7 | 0.00 | 0.00 | 0.00 | 46 | 1007.0 |
| 20260905162958 | 35 | 354 | 8.0 | 16.1 | 0.00 | 0.00 | 0.00 | 45 | 1007.0 |
| 20260905162458 | 35 | 39 | 9.7 | 16.1 | 0.00 | 0.00 | 0.00 | 44 | 1007.2 |
| 20260905161958 | 35 | 18 | 8.0 | 16.1 | 0.00 | 0.00 | 0.00 | 46 | 1007.3 |
| 20260905161458 | 35 | 357 | 6.4 | 11.3 | 0.00 | 0.00 | 0.00 | 47 | 1007.2 |
| 20260905160958 | 34 | 360 | 3.2 | 11.3 | 0.00 | 0.00 | 0.00 | 47 | 1007.1 |
| 20260905160458 | 35 | 358 | 4.8 | 11.3 | 0.00 | 0.00 | 0.00 | 49 | 1007.2 |
| 20260905155959 | 34 | 354 | 6.4 | 11.3 | 0.00 | 0.00 | 0.00 | 54 | 1007.2 |